Location: Cabeza de los Veneras
(40.2000°N, 5.2000°W)
Time: 13:47:49
(UTC+00:00)

USA 281 - Pass Details

Date: 18 April 2024
Orbit: 1074 x 1085 km, 106.0° (Epoch: 22 May)

Event Time Altitude Azimuth Distance (km) Brightness Sun altitude
Exits shadow 21:44:15 27° 206° (SSW) 1,929 4.3 -27.2°
Maximum altitude 21:47:07 40° 254° (WSW) 1,539 4.1 -27.6°
Drops below altitude 10° 21:53:14 10° 322° (NW) 2,929 6.5 -28.4°
Sets 21:55:58 0° 330° (NNW) 3,891 7.3 -28.7°
